Flag for U.S.A. Weather past 2 weeks in Tucson, Arizona, U.S.A.

Now
49 °F

Clear.


Feels Like: 44 °F
Forecast: 46 / 65 °F
Wind: 10 mph from Southeast

Location: Davis-Monthan Air Force Base

Current Time: Dec 25, 2014 at 4:02:17 AM

Latest Report: Dec 25, 2014 at 2:58 AM


Visibility: 10 mi

Pressure: 29.75 "Hg

Humidity: 35%

Dew point: 22 °F

Location of TucsonLocation

Historic Weather in Tucson — Graph

°F

Tucson temperature yesterday

Maximum temperature yesterday: 64 °F (at 2:58 PM)
Minimum temperature yesterday: 35 °F (at 4:58 AM)
Average temperature yesterday: 49 °F

Past Weeks' High & Low Weather Summary

 TemperatureHumidityPressure
High76 °F (Dec 12, 1:58 PM)100% (Dec 13, 12:58 PM)30.22 "Hg (Dec 13, 12:58 PM)
Low35 °F (Dec 24, 4:58 AM)11% (Dec 24, 2:58 PM)29.75 "Hg (Dec 25, 2:58 AM)
Average51 °F65%30.02 "Hg
* Reported Dec 10 2:58 AM — Dec 25 2:58 AM, Tucson, Weather by CustomWeather, © 2014

Note: Actual official high and low records may vary slightly from our data, if they occured in-between our weather recording intervals... More about our weather records

Advertising

Tucson weather history for previous 24 hours

 ConditionsComfort  
Time TempWeatherWind HumidityBarometerVisibility
2:58 AM
Dec 25
49 °FClear.10 mph35%29.75 "Hg10 mi
1:58 AM47 °FClear.7 mph39%29.76 "Hg10 mi
12:58 AM49 °FClear.3 mph36%29.76 "Hg10 mi
11:58 PM
Dec 24
49 °FClear.12 mph32%29.79 "Hg10 mi
10:58 PM49 °FClear.9 mph29%29.83 "Hg10 mi
9:58 PM50 °FClear.7 mph31%29.86 "Hg10 mi
8:58 PM47 °FClear.9 mph46%29.86 "Hg10 mi
8:03 PM46 °FClear.6 mph50%29.93 "Hg6 mi
7:58 PM47 °FClear.5 mph49%29.91 "Hg8 mi
6:58 PM50 °FClear.No wind39%29.93 "Hg10 mi
5:58 PM56 °FClear.9 mph27%29.93 "Hg10 mi
4:58 PM60 °FSunny.5 mph23%29.93 "Hg10 mi
3:58 PM64 °FSunny.2 mph14%29.93 "Hg8 mi
2:58 PM64 °FSunny.8 mph11%29.93 "Hg10 mi
1:58 PM63 °FSunny.5 mph12%29.96 "Hg10 mi
12:58 PM61 °FSunny.12 mph13%29.97 "Hg10 mi
11:58 AM58 °FSunny.14 mph16%30.03 "Hg10 mi
10:58 AM54 °FSunny.9 mph19%30.09 "Hg10 mi
9:58 AM50 °FSunny.10 mph25%30.11 "Hg10 mi
8:58 AM45 °FSunny.10 mph30%30.13 "Hg10 mi
7:58 AM41 °FSunny.12 mph37%30.12 "Hg10 mi
6:58 AM35 °FClear.5 mph56%30.12 "Hg10 mi
5:58 AM36 °FClear.8 mph51%30.11 "Hg10 mi
4:58 AM35 °FClear.1 mph59%30.12 "Hg10 mi
Weather by CustomWeather, © 2014

See weather overviewHow to use our weather pages